2001 FZ6  

Epoch 2001 Mar. 12.0 TT = JDT 2451980.5                 Nakano

M 225.84202              (2000.0)            P               Q

n   0.53887504     Peri.  296.69601     +0.69387975     +0.71821212

a   1.4955835      Node    17.56356     -0.58418633     +0.60366092

e   0.1660898      Incl.    9.91951     -0.42101927     +0.34607058

P   1.83           H   18.0           G   0.15           U   *

Residuals in seconds of arc 

010318 704  0.2-  0.1-    010319 918  0.7-  0.7-    010320 926  0.0   0.5+  

010318 699  0.6-  0.1-    010319 918  0.5+  0.2+    010321 859  0.3-  0.5+  

010318 704  0.0   1.2+    010319 918  0.4-  0.1-    010321 859  0.8+  0.4+  

010318 704  0.8+  0.2-    010319 704  0.4+  0.4+    010321 859 (4.3+  2.2+) 

010318 704  0.1-  0.1+    010319 704  0.4+  1.0-    010326 360  0.0   0.2-  

010318 699  0.0   0.3-    010319 704  0.3-  1.1-    010326 360  0.5-  0.1-  

010318 699  0.1+  0.1+    010320 926  0.5-  0.1-    010326 360  0.4+  0.2+  

010318 699  0.3+  0.8+    010320 926  0.0   0.4-                            

  

NAKANO

         **** Don't distribute anyone except personal use only ****

                (C) Copyright 2001 OAA/ComputingSection

write mail from CFAD0::NAKANO on 2001-03-27 19:12:47(JST).

 





–ß‚è‚Ü‚·B